Tracking 31032 objects as of 14-Jul-2025
HD Live streaming from Space Station
objects crossing your sky now

STARLINK-5909

Track STARLINK-5909 now!
10-day predictions
STARLINK-5909 is classified as:


NORAD ID: 55938
Int'l Code: 2023-037AA
Perigee: 577.2 km
Apogee: 581.3 km
Inclination: 70.0 °
Period: 96.1 minutes
Semi major axis: 6950 km
RCS: Unknown
Launch date: March 17, 2023
Source: United States (US)
Launch site: AIR FORCE WESTERN TEST RANGE (AFWTR)
Your satellite tracking list
Your tracking list is empty




NASA's NSSDC Master Catalog

Two Line Element Set (TLE):
1 55938U 23037AA  25194.24793643  .00000101  00000-0  16233-4 0  9995
2 55938  70.0017 168.1952 0002919 256.6366 103.4468 14.98320030128113
Source of the keplerian elements: AFSPC